Wind_Speed
24 26 27 31 38 37 33 33 36 37 36 34 32 30 33 35 35 35 32 28 26 27 30 33 34 32 29 26 24 23 21 21 23 24 25 24 23 25 26 27 28 29 29 30 30 31 31 32 33 35 37 38 36 34 34 35 35 35 32 29 28 26 25 24 23 23 24 24 24 24 23 23 23 23 23 23 23 23 23 23 23 23 23 23 23 23 23
22 25 26 27 32 36 37 36 36 37 38 38 36 34 35 37 38 37 34 31 30 30 31 34 36 35 33 30 28 26 23 21 21 20 20 22 24 26 28 29 29 28 28 29 30 30 30 31 32 33 35 36 35 33 32 34 36 36 32 30 29 28 26 26 25 26 27 28 28 26 25 24 23 23 23 23 24 24 24 24 24 25 24 24 24 24 24
19 23 24 24 30 37 38 36 37 39 39 41 42 39 38 40 40 39 37 34 33 33 34 36 37 37 35 32 29 28 26 25 23 20 18 20 22 22 26 28 28 28 28 28 28 29 29 30 31 33 36 35 34 33 32 31 34 35 32 30 31 30 27 27 29 28 29 30 29 28 26 24 24 23 23 24 24 23 23 23 23 23 24 24 24 24 24
17 21 22 21 27 36 40 38 36 38 39 40 43 43 41 41 41 40 39 38 38 36 36 37 39 39 37 34 31 30 28 27 26 23 21 22 21 19 22 26 27 29 29 27 26 27 27 29 30 34 37 37 34 33 33 33 34 36 34 32 33 34 30 29 31 31 30 31 30 28 27 26 25 24 24 24 24 23 22 22 21 21 22 22 23 22 23
15 18 20 21 24 31 41 42 36 35 38 39 41 44 44 42 42 42 41 41 41 39 36 34 37 40 39 35 33 33 32 29 27 25 24 25 24 22 21 23 27 28 27 27 27 26 24 25 29 33 36 37 36 34 34 34 34 35 36 33 33 33 29 28 31 32 32 33 32 31 30 28 26 25 24 25 25 24 23 22 22 22 22 22 22 22 22
14 16 17 21 23 27 37 43 38 33 36 39 40 44 45 43 43 43 44 44 43 42 39 36 34 35 36 34 33 33 34 32 29 28 27 26 26 25 24 24 26 27 27 27 27 26 23 23 26 32 36 36 36 35 34 35 34 34 34 30 27 26 24 25 28 30 31 33 35 34 33 31 29 28 27 26 26 25 24 23 23 23 23 23 23 22 22
12 14 15 20 24 25 30 38 39 36 36 38 40 42 44 44 43 43 44 45 45 45 43 41 37 33 31 30 29 29 31 30 28 28 27 26 25 25 25 27 27 27 27 29 28 26 25 24 23 26 31 33 34 34 34 32 32 33 32 27 24 23 21 23 25 26 26 29 31 34 35 34 33 31 29 29 28 28 26 24 23 22 23 24 24 23 23
10 13 16 19 22 23 24 29 35 36 35 37 40 42 43 43 43 43 43 43 45 45 44 45 44 40 36 33 32 30 29 28 27 25 26 28 28 26 25 26 28 28 27 28 28 27 27 27 24 21 23 27 30 32 31 27 27 29 29 26 25 23 21 22 23 23 23 24 25 28 31 33 34 32 31 31 32 31 29 26 25 25 27 27 27 26 26
9 12 15 17 19 21 22 24 27 28 29 31 35 38 39 39 39 40 41 42 43 44 44 44 45 44 41 39 39 38 36 33 30 26 24 25 29 31 29 28 28 27 26 26 27 27 27 27 25 23 25 27 28 28 26 24 24 25 26 25 24 22 20 20 22 22 22 23 22 22 24 27 29 30 31 33 34 33 30 28 28 29 30 30 30 30 30
9 11 13 15 18 19 20 21 22 22 22 26 30 32 33 33 32 34 37 40 43 43 43 44 44 43 42 40 40 40 39 38 36 33 29 26 26 29 31 32 32 30 27 24 24 25 26 27 25 24 25 27 29 28 27 25 24 23 24 23 21 19 19 19 20 21 21 20 20 20 20 22 23 24 26 30 32 33 32 32 32 32 32 32 33 34 34
10 11 13 14 16 18 18 20 21 19 17 17 22 25 28 29 29 28 31 35 40 41 41 42 43 43 42 42 40 38 38 38 37 37 36 32 28 26 27 28 31 33 31 28 25 24 24 24 24 24 24 24 25 27 27 27 26 25 24 23 20 17 18 18 17 18 18 18 18 19 20 21 21 22 23 25 28 29 30 30 31 32 32 33 34 35 36
9 10 12 13 14 15 16 18 19 18 15 14 16 20 22 24 25 25 26 28 32 34 35 35 37 38 39 40 39 38 37 35 35 36 37 35 32 30 29 27 27 29 31 30 29 28 28 26 25 25 27 26 24 25 25 25 26 26 26 25 21 17 16 18 19 19 20 20 20 20 21 21 22 23 23 23 24 24 24 24 24 25 27 29 31 32 33
9 9 10 11 12 12 13 14 15 15 14 14 16 17 17 18 20 21 22 23 25 28 30 31 32 33 34 35 36 36 35 33 31 32 34 34 33 32 32 33 32 30 30 31 30 31 33 32 29 28 28 27 26 26 26 26 26 27 28 28 25 21 20 22 23 22 23 24 22 22 23 23 23 23 23 23 24 22 22 23 23 23 24 25 26 26 27
9 9 9 8 8 8 9 11 12 12 13 14 14 14 14 15 17 18 20 21 22 24 26 28 29 30 31 31 32 32 33 32 29 28 28 30 31 30 31 32 33 31 30 31 32 32 33 35 34 33 32 31 28 27 26 26 26 28 29 31 31 29 27 27 26 26 26 27 26 26 26 24 23 24 25 26 27 26 25 26 27 26 26 26 26 25 25
10 10 9 7 6 7 7 8 9 11 12 13 14 14 13 14 15 17 19 20 21 22 24 25 27 28 29 30 30 30 30 30 29 28 26 26 27 29 29 29 30 29 28 29 31 33 34 35 35 36 38 39 38 35 33 32 31 31 31 33 34 34 32 30 30 29 30 31 31 30 28 26 26 27 28 28 29 29 29 29 29 29 28 29 28 27 27
11 10 10 8 7 8 8 9 9 9 10 11 12 13 13 14 15 16 18 19 20 22 22 23 24 26 27 28 29 29 29 29 28 28 28 26 26 27 28 29 30 29 28 28 29 31 33 34 34 35 36 38 39 38 38 38 38 37 37 37 37 37 36 34 32 31 32 32 33 32 31 30 30 31 31 30 30 31 31 31 30 30 30 30 30 28 27
12 11 11 9 8 9 10 10 10 9 10 11 12 12 12 13 14 15 16 18 19 20 20 21 22 23 25 26 27 27 28 28 28 28 28 29 29 28 29 30 31 32 32 31 31 31 32 33 34 34 35 36 37 37 36 37 38 39 39 40 40 40 40 38 37 35 34 34 34 34 33 33 34 34 34 34 33 33 32 32 32 31 30 30 30 30 29
12 12 11 10 10 10 10 11 10 11 11 12 12 12 12 13 13 14 15 16 16 17 18 18 19 20 22 23 25 26 26 26 27 27 28 29 30 31 31 31 32 32 33 34 34 34 34 34 35 36 37 38 39 38 37 37 37 38 39 41 42 42 42 41 40 39 37 36 36 36 36 35 35 36 37 36 35 34 34 35 35 34 32 32 32 33 34
8 8 8 9 10 11 10 10 10 10 11 11 12 13 13 13 13 13 14 14 15 16 16 16 16 17 18 20 22 23 25 25 25 26 26 27 29 31 33 33 33 33 33 34 34 34 34 34 36 37 38 40 41 42 41 40 39 39 40 41 42 43 42 42 42 41 40 39 39 39 38 37 37 37 37 37 37 36 36 36 36 35 34 35 37 38 38
6 6 6 8 9 9 9 9 9 9 9 10 11 12 12 12 13 13 14 14 15 15 15 15 15 15 16 17 18 20 22 23 24 24 25 25 26 28 30 32 33 34 34 35 35 35 34 34 35 36 38 40 42 43 44 43 43 42 42 42 43 43 43 43 43 43 42 41 41 41 40 40 39 38 38 37 38 38 38 37 37 36 35 36 38 39 40
8 7 6 7 8 7 7 8 8 8 8 8 9 11 11 11 11 12 13 15 15 16 16 16 16 16 16 16 17 17 18 20 21 22 23 24 25 26 28 29 31 32 33 34 35 36 36 36 36 37 38 39 41 43 45 45 45 45 44 44 44 44 44 43 43 43 43 43 42 42 42 42 40 40 39 39 39 40 41 41 41 40 37 35 34 34 37
8 8 8 8 8 8 7 8 9 9 10 9 9 10 11 11 11 11 12 13 15 16 16 17 17 17 16 16 17 17 18 18 19 20 21 22 23 24 26 28 30 31 32 33 33 34 35 36 37 38 39 40 42 43 45 46 46 46 46 45 45 45 44 44 43 43 43 44 44 44 44 44 42 41 41 41 41 41 42 43 44 44 43 41 38 35 36
10 10 9 9 9 9 9 9 10 10 11 11 10 10 11 12 13 12 12 13 14 15 16 16 17 17 17 17 17 17 18 18 19 19 20 21 22 23 24 26 28 30 32 33 33 34 34 34 35 36 38 40 42 43 45 46 48 48 47 46 46 46 45 45 44 44 43 44 45 45 45 45 45 44 43 43 42 42 43 44 45 45 45 46 45 44 42
12 11 11 10 10 10 10 11 11 12 12 12 12 12 12 13 14 14 15 15 16 16 17 18 18 18 18 18 18 18 18 18 19 20 20 21 22 22 23 24 25 27 28 30 31 33 34 34 35 35 36 37 39 41 42 44 46 47 48 48 46 46 46 46 45 45 44 44 45 45 45 46 46 46 45 44 44 44 44 45 46 47 47 48 49 49 49
11 11 11 11 10 10 11 12 13 13 14 14 14 14 14 14 15 15 15 16 17 18 18 18 19 19 20 20 20 19 19 19 20 20 21 22 22 23 24 24 25 26 27 27 28 30 31 33 34 35 36 37 38 39 40 41 42 43 45 47 47 46 45 46 45 46 46 46 46 46 47 47 47 47 47 47 46 46 47 48 49 49 49 49 51 51 51
10 11 11 11 10 9 11 12 13 14 14 15 16 16 16 16 16 16 16 17 17 18 19 19 19 19 20 21 21 21 21 21 21 22 22 23 23 24 25 25 26 26 27 27 28 29 30 31 31 33 34 36 37 39 40 40 41 41 42 44 45 45 45 45 45 46 46 47 47 47 47 48 48 48 48 49 49 49 48 48 50 51 51 51 52 53 53
11 11 11 10 10 10 11 12 13 14 14 15 16 16 17 17 17 18 18 18 17 18 19 20 20 20 20 21 22 22 23 23 23 23 24 24 25 26 26 27 28 28 28 29 29 30 30 31 31 32 33 34 35 36 38 40 41 42 42 43 44 45 45 44 44 45 46 47 47 47 47 48 48 48 49 50 50 51 49 48 49 51 53 54 54 54 55
10 9 9 9 10 10 11 12 12 13 14 16 16 17 17 18 18 19 19 19 18 19 19 20 21 21 22 22 23 23 24 25 25 26 26 26 27 27 28 28 29 30 31 31 32 32 33 33 33 34 35 35 35 35 36 37 38 40 41 42 43 44 45 45 45 44 45 45 46 47 48 48 48 48 49 49 50 51 52 51 49 49 51 55 57 56 55
9 9 9 10 10 9 10 11 12 13 14 15 16 17 17 18 19 20 20 19 19 20 21 21 22 23 24 24 25 25 26 26 27 28 28 29 29 29 30 31 31 32 32 33 34 34 34 35 35 36 37 37 37 38 38 38 38 39 39 40 40 41 43 44 45 45 46 45 46 46 47 47 48 49 49 50 50 51 52 52 51 49 48 51 56 58 55
11 11 10 10 10 9 10 11 12 13 13 14 16 16 17 17 19 20 20 19 19 20 21 23 24 25 26 26 27 27 28 28 28 29 29 30 31 31 32 32 33 33 34 35 35 36 36 36 36 37 38 38 38 38 38 38 38 38 39 40 40 41 41 41 42 43 44 45 46 46 46 46 46 47 48 50 50 51 51 51 51 50 47 47 50 54 53
12 12 12 11 11 11 12 12 13 14 15 15 16 17 16 17 19 19 19 19 20 20 21 22 24 26 27 28 29 29 29 30 30 30 31 31 32 32 33 34 34 35 35 36 36 37 37 38 38 39 39 39 39 40 39 39 38 38 39 39 40 40 41 42 42 42 43 43 44 45 46 46 46 46 46 47 48 49 50 51 51 51 51 50 49 49 50
11 12 13 13 13 13 14 15 16 16 17 17 18 17 17 17 18 19 20 21 21 22 22 23 24 26 27 29 30 30 31 31 32 32 32 33 33 34 34 35 36 37 37 37 38 38 38 39 40 40 41 41 41 42 42 42 42 41 41 41 41 41 42 42 43 43 44 44 44 44 44 45 46 46 46 46 46 46 46 47 49 50 52 53 52 51 52
12 13 14 15 15 15 15 16 17 18 19 19 19 19 18 18 18 19 20 21 23 24 25 25 26 27 27 28 30 31 32 32 33 33 33 34 34 35 36 36 37 37 38 38 39 39 40 40 41 41 41 42 42 43 44 44 45 45 44 44 44 45 45 44 43 43 44 45 45 45 45 45 46 46 46 47 47 47 46 45 46 47 49 51 53 53 53
14 15 16 17 16 16 16 17 18 19 20 20 20 20 20 20 20 21 22 23 24 25 25 26 26 27 28 29 30 30 31 32 33 33 34 34 35 35 36 37 38 38 39 39 39 40 40 41 41 42 42 42 43 44 45 46 47 47 47 46 46 46 47 48 47 47 47 47 47 46 46 47 47 46 46 46 47 47 48 48 48 47 47 48 50 52 53
17 17 17 18 18 18 18 18 19 20 21 21 21 21 21 21 22 23 24 26 26 27 27 27 27 27 28 29 30 31 32 33 33 34 35 35 36 37 37 37 38 39 39 40 40 41 41 41 42 42 42 43 44 45 46 47 47 48 48 48 48 47 48 48 49 49 49 50 49 48 48 49 48 48 48 48 47 47 48 49 50 50 49 48 48 50 51
19 19 18 18 18 19 19 19 20 21 22 23 23 23 23 23 24 25 26 27 28 28 29 29 29 29 30 31 31 32 33 34 35 35 36 37 38 38 38 38 38 39 39 40 41 42 42 42 42 42 42 43 44 45 46 47 47 48 48 48 48 48 48 48 49 49 49 49 49 50 50 50 49 49 50 49 48 48 49 49 50 51 51 51 50 50 51
18 19 19 19 19 19 19 20 21 21 22 23 23 24 24 25 25 26 27 28 29 29 30 30 31 32 32 33 33 34 34 35 36 37 37 38 39 39 40 40 40 40 40 41 41 42 43 43 43 43 43 43 44 45 45 46 46 46 47 47 47 47 47 47 48 49 49 49 48 49 50 50 50 50 50 50 50 50 50 50 51 50 51 51 52 52 52
17 18 19 19 20 20 21 21 22 23 24 24 24 25 25 25 26 27 28 29 30 31 31 32 33 34 34 35 35 35 36 36 37 37 38 39 40 40 41 41 41 41 41 41 42 42 43 43 43 43 44 44 45 45 46 45 45 45 46 47 47 47 46 46 47 48 49 50 48 46 46 47 47 47 47 48 48 49 50 51 51 51 51 51 52 52 52
17 18 19 20 21 22 23 24 25 25 26 26 27 27 27 27 28 28 30 30 31 32 33 34 34 35 35 36 37 37 38 38 38 38 39 40 41 41 42 42 42 42 42 42 42 42 43 43 44 44 45 45 46 46 46 46 46 46 46 46 47 48 48 47 46 46 48 50 50 48 46 47 47 47 47 47 47 48 49 49 49 50 50 51 51 52 52
17 18 20 21 23 24 25 26 26 27 28 28 29 29 29 29 30 30 31 32 33 34 34 35 36 36 37 37 38 39 40 40 40 40 40 41 42 42 43 43 43 43 43 43 43 43 43 44 44 44 45 46 46 46 47 46 46 47 47 46 46 48 50 50 49 48 48 49 50 49 49 49 49 49 49 50 49 49 49 49 49 49 50 51 51 52 52
18 20 21 23 25 26 26 27 27 28 28 29 29 30 30 31 31 32 33 34 34 35 36 36 36 37 38 38 39 40 40 41 41 41 42 42 43 43 43 43 43 43 43 43 44 44 44 44 44 44 45 45 45 46 46 46 46 47 47 46 46 47 49 51 52 52 51 50 50 49 49 50 51 50 49 48 48 48 48 48 48 48 48 50 51 51 52
20 22 24 26 26 27 27 28 28 28 29 29 30 30 31 31 32 33 33 34 34 35 36 36 37 37 38 39 39 40 41 41 42 42 43 43 44 44 44 44 43 43 43 44 44 44 44 44 44 44 44 44 45 45 45 45 46 46 46 46 46 47 47 48 48 49 49 49 50 50 48 48 49 51 50 49 48 48 48 48 48 48 48 48 49 49 50
22 24 26 27 27 28 28 28 29 29 29 30 30 31 32 33 33 33 33 33 34 34 35 36 37 37 38 38 39 40 41 42 42 43 43 44 44 44 44 43 43 43 44 44 44 44 44 43 43 43 43 43 43 43 43 43 44 44 45 46 46 46 46 45 43 44 46 49 51 51 50 47 47 49 51 51 50 50 50 51 52 52 52 51 50 49 48
24 25 26 27 28 28 29 29 30 30 30 30 31 32 33 34 34 34 34 34 34 34 35 36 36 36 37 38 39 41 41 42 42 42 43 43 43 43 43 42 42 43 43 42 42 42 41 41 41 42 42 42 42 42 42 42 42 42 44 45 45 45 45 43 40 40 44 48 48 49 50 50 49 49 50 51 51 52 52 53 54 55 54 54 54 52 51
25 26 27 28 29 30 30 31 31 31 31 32 32 33 34 35 35 34 33 33 33 34 34 35 35 35 37 38 39 40 41 41 41 42 41 41 41 41 41 41 41 41 40 40 39 39 38 38 39 39 40 41 42 42 42 43 43 44 44 45 44 44 44 43 42 43 45 46 45 45 46 48 50 49 48 46 46 46 47 48 49 49 49 49 49 49 50
26 27 28 29 30 31 31 32 32 31 32 32 33 34 34 35 34 33 32 32 33 33 33 33 34 36 37 38 39 39 40 40 40 39 39 39 39 39 39 39 39 38 37 36 35 34 34 34 34 35 36 38 39 40 41 41 41 41 41 41 42 42 42 43 45 47 46 44 41 41 41 43 47 50 50 47 44 41 40 40 40 40 41 41 41 42 43
27 28 29 30 31 31 32 32 32 32 32 32 33 34 34 34 33 32 32 32 31 32 32 33 35 36 37 37 38 38 38 38 38 38 38 38 38 38 37 37 36 35 33 31 30 29 28 28 29 30 31 32 33 33 34 33 32 31 30 31 33 37 40 42 45 48 48 46 43 40 39 39 41 46 51 52 51 48 46 45 44 43 43 43 43 44 45
27 28 29 30 31 31 31 32 32 32 32 32 32 33 33 33 32 31 31 31 31 31 33 34 35 36 36 36 36 36 35 35 36 36 37 37 36 35 34 34 32 30 28 26 25 24 24 25 26 27 27 27 27 26 26 26 27 29 28 27 28 31 35 37 39 42 45 47 46 45 42 41 40 40 43 46 48 48 48 48 48 47 47 47 46 47 47
27 28 29 30 31 31 31 31 31 30 30 31 31 31 31 31 31 30 30 30 31 32 33 34 34 34 35 35 34 33 33 34 35 35 35 35 34 33 31 30 28 26 24 23 22 21 22 23 24 25 25 24 22 21 21 21 24 28 31 31 30 31 32 33 34 36 37 40 41 41 41 41 40 40 40 41 42 43 44 45 45 46 47 47 47 47 47
28 29 30 31 31 31 30 29 29 29 29 30 30 30 30 30 30 29 29 30 31 33 33 33 33 33 33 32 32 32 32 33 34 34 33 32 31 29 27 26 24 23 22 22 21 19 19 22 23 23 23 22 21 20 19 18 20 23 28 30 31 30 30 30 31 31 31 32 33 34 34 35 36 37 38 39 40 40 40 41 42 42 43 44 44 45 45
29 30 31 31 30 29 28 27 27 28 29 29 30 30 30 30 29 29 29 31 32 32 32 32 32 32 31 30 30 31 32 32 32 31 30 28 26 25 24 22 21 20 21 21 20 19 19 20 21 21 22 21 20 20 19 18 17 18 21 24 26 27 27 27 27 27 27 27 28 29 30 30 31 32 33 34 35 36 37 38 38 38 38 39 39 40 40
29 29 29 29 27 25 24 25 26 28 29 29 29 29 29 28 28 29 30 31 31 31 30 30 30 30 29 29 30 30 31 30 29 27 25 24 23 22 21 20 19 19 19 20 20 20 20 20 20 20 20 21 20 20 19 19 18 17 18 19 20 22 23 24 24 24 25 25 25 26 26 27 28 28 28 29 29 30 31 33 33 34 35 35 35 35 36
Wind_Direction
227 228 225 210 201 198 201 204 204 209 212 205 198 201 204 204 205 205 209 214 220 221 219 221 225 227 227 225 220 218 219 222 224 225 226 228 230 227 224 227 232 231 228 227 228 231 231 231 234 235 231 228 225 222 222 220 218 221 223 222 226 229 228 229 229 225 224 228 229 227 226 229 232 231 231 230 229 228 225 225 228 231 231 233 235 236 237
231 231 233 225 213 206 203 202 203 207 210 206 202 203 205 205 205 205 207 211 218 220 220 221 225 226 226 226 226 227 229 230 232 230 224 225 231 232 227 226 228 231 235 237 235 234 234 231 231 232 232 235 237 235 231 225 220 220 221 221 225 227 229 231 230 225 224 228 230 227 224 224 227 229 228 227 228 230 229 227 226 229 232 233 235 237 238
234 234 233 229 223 214 206 202 202 203 207 208 204 205 209 209 207 207 208 213 217 219 219 222 226 227 226 226 227 230 232 233 235 234 230 233 238 236 230 229 228 229 235 240 240 238 236 233 231 227 225 230 236 237 236 233 227 224 223 222 223 222 222 227 230 228 228 232 232 231 228 224 223 225 226 226 226 229 234 235 232 230 231 234 236 238 240
228 229 227 225 226 220 211 207 204 202 204 208 207 207 212 214 212 211 212 215 218 218 218 223 228 231 231 229 228 229 230 231 233 238 241 245 247 240 233 235 236 233 233 236 239 239 236 234 232 226 223 225 230 230 232 235 232 228 226 225 224 221 219 223 229 229 230 234 235 236 235 231 228 226 226 226 226 226 229 234 236 235 234 235 237 237 239
222 221 221 223 229 226 217 211 207 204 205 209 210 211 214 218 219 218 218 219 220 217 216 221 228 232 235 235 232 230 230 231 237 245 247 245 243 241 238 240 243 242 239 238 240 242 240 236 235 231 225 224 225 225 229 233 233 231 231 229 227 225 222 224 228 230 231 234 236 238 238 237 235 232 230 229 229 229 227 228 232 236 237 237 236 236 238
224 219 217 219 226 229 222 214 210 211 211 211 213 214 216 221 224 224 224 225 225 222 220 222 227 230 234 239 238 234 233 236 241 246 246 242 239 240 241 243 245 245 243 243 246 248 246 241 239 234 228 224 223 224 227 231 233 233 232 230 227 229 230 228 227 228 229 232 235 237 237 236 236 236 235 235 234 232 230 228 229 236 240 241 240 240 240
225 217 211 215 221 227 226 219 218 223 222 218 218 218 219 222 225 227 229 229 229 227 225 224 224 225 229 233 235 234 232 234 238 241 242 241 237 236 238 242 246 246 244 245 248 249 247 245 241 234 227 225 226 227 228 230 232 233 231 227 225 228 233 232 227 226 229 232 234 236 236 234 235 235 234 236 239 237 235 233 232 235 243 247 247 246 245
218 210 206 212 221 228 230 226 226 232 230 224 223 224 224 225 227 228 231 232 233 231 229 227 226 227 229 229 230 234 235 236 238 241 243 243 240 236 235 239 244 247 246 246 247 246 244 245 246 241 231 227 227 229 230 231 230 228 226 226 226 225 226 227 223 223 229 233 234 236 237 236 237 238 235 233 237 239 239 240 239 239 243 248 250 249 248
220 214 211 216 224 228 229 228 231 237 235 227 225 228 230 231 231 232 234 235 235 235 234 234 233 233 234 234 235 239 241 242 243 243 244 246 243 240 237 239 243 248 250 250 247 244 241 241 243 243 239 235 231 228 228 228 226 224 223 225 227 228 226 225 223 221 225 230 231 234 239 240 242 245 243 237 236 239 242 243 243 242 242 245 248 250 250
225 220 218 220 225 229 230 228 232 243 243 232 227 230 234 237 238 239 239 238 237 238 239 241 242 240 240 242 245 247 247 247 246 243 244 249 247 242 239 240 241 245 249 251 249 245 241 237 237 237 235 236 236 232 230 229 229 229 228 224 224 226 224 223 224 224 224 227 231 234 238 240 242 247 247 242 240 242 244 243 243 244 245 246 248 250 250
234 229 225 223 226 231 234 233 237 249 255 242 232 232 236 240 241 242 243 239 237 239 241 244 246 245 245 246 250 254 255 255 253 249 247 249 248 242 241 241 240 241 244 245 244 242 239 237 237 234 230 230 232 230 230 231 233 234 232 225 218 215 216 219 226 231 231 232 233 236 239 242 243 244 246 246 245 245 245 244 244 246 248 248 249 250 250
254 245 238 235 234 234 235 236 241 253 263 260 250 243 240 242 243 244 245 240 235 236 241 245 247 248 248 248 250 253 256 259 260 255 251 251 250 246 244 245 244 242 242 243 242 240 240 244 246 245 240 236 234 232 230 230 230 229 226 221 215 217 227 236 241 244 246 246 243 243 242 243 245 244 243 245 247 248 249 248 246 246 248 250 250 251 251
265 258 252 252 251 248 246 245 248 253 259 261 261 256 251 246 244 246 249 247 241 238 241 245 249 250 251 251 250 249 250 253 258 257 252 251 252 251 248 248 249 249 247 247 245 242 243 246 248 247 243 239 239 239 237 235 235 233 230 228 229 235 245 249 249 248 248 248 249 249 246 245 249 250 249 249 250 252 254 255 253 251 250 252 252 252 255
268 267 263 258 255 253 254 255 254 253 253 255 260 264 263 256 251 251 254 254 251 247 245 247 249 250 250 250 249 247 245 248 253 255 252 249 248 249 248 247 248 249 248 248 246 244 244 245 245 245 244 242 242 241 239 239 240 240 241 242 244 249 251 252 255 254 249 246 247 248 247 247 250 251 251 252 254 256 255 255 256 255 254 254 254 253 254
267 266 265 258 247 243 246 250 251 250 250 253 257 262 265 264 260 256 255 255 255 253 252 251 251 251 250 250 249 248 247 248 251 253 253 250 246 245 245 242 241 243 244 245 246 246 245 246 245 245 247 249 250 248 246 245 244 245 248 251 254 257 259 258 258 255 250 247 248 248 248 247 246 246 247 248 251 252 252 253 254 254 253 255 255 254 253
262 260 261 260 252 248 249 250 249 248 248 251 254 256 259 261 259 256 255 255 256 256 257 257 256 255 255 253 253 252 251 252 252 251 251 250 246 243 240 237 235 237 240 243 245 246 247 247 247 246 247 249 252 252 251 249 249 251 253 255 257 259 261 261 259 255 252 250 250 250 250 248 246 246 246 246 247 249 250 251 253 253 251 252 254 255 252
265 264 264 262 258 256 256 254 253 251 251 253 256 257 257 257 258 258 257 258 258 260 261 262 262 261 260 259 258 258 257 257 256 255 252 250 248 245 241 238 235 236 239 244 247 248 249 249 250 250 250 249 250 251 251 250 251 253 255 257 258 259 260 261 261 258 255 253 251 250 248 247 246 246 246 246 247 249 251 251 252 253 252 251 251 250 248
265 265 267 265 261 259 256 253 253 253 254 259 263 265 265 264 263 262 263 263 262 263 264 266 266 264 263 262 262 261 261 261 260 259 257 255 253 250 248 245 242 240 241 245 248 249 250 251 251 251 251 251 250 249 250 249 249 251 253 256 258 260 261 261 261 260 258 255 252 250 247 245 244 245 246 246 246 248 252 254 253 252 251 250 248 247 247
255 256 261 260 260 260 258 257 257 254 252 256 261 264 267 269 269 268 267 267 265 264 264 265 266 266 265 263 262 262 262 263 263 262 260 258 257 256 255 253 251 248 246 247 248 249 249 250 251 251 251 252 251 250 250 249 248 248 249 251 254 257 259 259 259 259 258 256 255 253 251 248 245 244 245 246 245 246 248 252 255 254 252 250 249 249 250
256 252 250 252 257 258 257 257 259 259 258 259 263 265 266 268 270 269 268 268 268 268 266 265 266 268 267 265 263 262 262 262 263 263 262 260 258 258 257 257 257 255 253 251 251 251 251 250 251 251 251 252 252 252 252 252 250 250 249 248 250 252 254 256 257 257 257 256 255 254 253 251 248 246 244 243 244 245 245 247 251 254 254 253 252 251 252
260 260 261 260 258 255 254 257 262 265 265 264 267 270 270 270 271 271 269 268 268 268 268 267 267 267 267 267 265 263 262 262 262 261 261 260 258 257 256 256 257 257 257 256 255 254 254 253 252 252 252 253 253 253 254 254 254 253 252 251 251 251 252 254 255 256 256 255 254 254 254 253 251 248 245 241 241 243 244 244 245 247 250 252 254 253 253
265 267 270 270 267 266 267 271 275 277 275 272 271 273 274 274 274 272 271 269 267 267 267 267 266 266 265 265 265 263 261 260 260 260 260 259 258 257 256 256 255 256 256 256 255 255 254 254 254 253 253 253 253 254 254 255 256 255 255 254 254 253 253 253 253 254 255 254 253 252 253 253 252 249 246 242 241 241 243 243 244 244 245 247 250 254 254
273 271 273 273 274 274 275 276 277 277 277 275 272 271 273 275 274 273 272 271 270 270 271 270 269 269 269 267 266 265 263 261 260 260 260 259 258 257 257 257 257 257 257 257 257 256 254 253 253 252 252 252 252 253 253 254 256 257 257 257 256 255 255 254 254 254 254 254 254 252 252 252 252 250 247 244 242 242 242 243 244 245 245 246 247 249 250
276 281 285 284 282 282 283 281 279 277 277 278 277 274 273 273 275 276 277 277 277 277 278 278 277 276 275 273 271 268 267 266 263 261 260 260 260 259 259 259 259 260 260 259 259 258 256 255 253 252 252 251 252 252 253 253 254 256 257 258 258 258 257 256 256 256 255 255 255 254 252 251 251 251 251 248 246 245 244 243 244 245 246 247 248 249 249
278 281 284 285 286 288 287 282 280 280 281 281 279 276 272 271 272 274 276 278 279 279 279 279 280 279 278 276 274 272 269 267 265 263 261 260 260 259 259 259 259 260 261 261 260 260 259 258 256 255 253 252 252 252 253 253 254 256 257 258 258 259 259 258 258 257 256 256 256 256 256 254 252 251 252 252 251 251 249 247 245 245 246 247 248 249 249
284 284 286 289 293 292 287 285 286 286 284 281 279 277 276 275 275 276 276 277 278 279 279 278 277 276 276 276 275 274 272 269 267 265 264 263 262 260 259 259 259 260 261 261 261 261 261 260 260 259 258 256 255 254 254 254 255 256 257 258 259 260 260 259 258 258 257 257 256 256 257 257 255 253 252 252 252 253 254 252 248 246 247 247 247 247 248
286 289 293 298 302 300 295 294 296 294 290 286 282 280 278 277 276 277 278 279 280 280 280 279 279 278 277 276 275 275 273 272 270 268 267 266 265 264 262 262 261 261 260 260 259 259 260 260 260 260 260 259 258 257 257 256 256 256 256 257 258 259 260 260 259 259 258 258 258 257 257 257 257 256 254 253 253 253 254 254 251 249 248 248 248 249 249
282 286 292 297 301 302 301 301 302 300 296 293 290 286 283 281 279 278 278 279 280 280 279 279 281 281 280 280 279 278 276 275 274 272 271 269 268 266 265 264 263 263 262 262 260 260 259 260 260 260 261 260 260 259 258 258 258 257 257 257 257 257 258 259 259 259 259 259 259 258 258 258 258 257 256 255 254 254 253 253 252 252 250 248 248 250 250
277 281 286 290 294 303 308 308 306 303 300 297 295 290 286 283 282 281 280 281 281 282 282 282 282 283 283 283 283 282 280 279 278 276 275 273 272 270 269 267 266 264 264 263 263 262 261 261 261 261 262 261 261 260 260 259 259 259 259 258 258 257 257 257 258 258 258 258 258 259 259 259 258 257 256 255 254 255 255 253 252 252 252 251 249 249 250
277 278 280 285 293 303 309 311 311 310 307 303 299 294 289 286 283 281 279 279 278 280 283 284 285 285 285 285 284 284 283 282 280 279 278 276 275 274 273 271 270 268 266 265 265 264 263 262 262 263 263 263 262 261 261 260 261 261 261 260 259 259 259 258 258 257 257 257 257 257 257 258 258 257 257 256 256 255 255 254 251 250 250 251 251 250 251
280 282 285 291 298 304 309 313 317 317 315 310 304 300 297 293 289 287 285 282 279 277 277 279 282 284 285 285 285 284 283 282 281 280 278 277 277 276 275 274 273 272 270 269 268 267 266 265 264 264 264 264 263 263 262 262 262 263 264 263 262 261 261 260 259 258 258 257 256 255 255 255 255 255 255 255 255 255 254 254 253 250 249 250 251 252 252
282 288 292 295 298 303 310 315 318 318 317 312 307 304 300 295 293 292 290 288 286 284 282 281 282 283 284 285 285 284 283 282 281 280 279 279 278 277 276 276 275 274 273 271 270 269 268 267 266 265 265 265 265 265 265 264 264 264 264 264 263 263 263 263 261 260 260 259 258 257 256 255 254 254 253 252 252 253 253 253 253 252 251 251 251 251 251
282 289 292 294 298 303 310 314 316 316 316 313 309 306 303 299 294 291 289 287 287 287 287 287 287 286 285 285 284 283 283 282 281 281 281 280 280 280 279 278 276 275 274 273 272 271 269 268 267 266 266 265 266 266 266 266 265 265 264 264 263 263 263 262 261 260 261 261 261 260 259 259 257 256 255 253 252 251 252 253 252 251 251 251 251 251 251
281 287 288 290 295 300 306 309 312 314 314 313 310 306 303 300 297 293 291 289 288 288 288 288 288 287 287 285 283 282 281 281 281 282 282 282 282 281 281 280 279 277 276 275 273 272 270 269 268 267 266 266 265 265 265 265 265 265 266 265 264 262 261 261 261 260 261 262 262 262 262 261 260 259 258 257 255 253 252 253 252 252 251 251 252 252 253
280 284 285 288 292 296 300 304 307 310 312 312 310 307 303 299 296 294 293 292 292 292 291 291 290 289 288 287 286 285 283 283 282 283 283 283 283 282 281 281 280 279 278 277 275 273 271 270 269 268 268 267 266 265 264 264 263 264 264 264 264 262 261 261 261 261 261 261 261 261 261 261 261 261 260 259 258 256 254 253 252 252 251 251 252 253 254
281 284 287 290 293 294 296 299 303 307 310 312 311 308 304 300 296 294 293 292 293 293 293 293 293 292 292 290 289 289 288 287 286 285 284 284 284 284 283 283 281 280 279 278 276 275 274 272 271 270 270 269 267 266 265 264 264 263 263 263 263 262 261 260 259 259 259 259 258 258 259 259 260 260 260 259 259 258 256 254 253 252 251 251 251 252 254
286 290 293 295 295 293 292 295 298 302 305 307 308 307 304 300 297 295 293 292 292 292 292 292 292 292 292 292 292 291 291 290 289 288 287 286 285 285 286 285 283 281 280 278 276 275 275 274 273 273 271 270 269 268 267 266 265 264 262 261 261 261 260 259 258 257 256 256 256 257 258 258 258 258 258 258 257 256 256 255 255 253 252 252 252 252 253
292 296 298 299 297 295 294 294 295 297 299 302 304 305 304 301 298 296 294 293 293 292 291 292 292 292 292 292 292 292 292 292 291 289 288 286 286 286 286 286 285 283 281 279 277 276 275 275 274 273 273 272 271 269 268 266 265 262 260 259 259 259 258 256 256 255 255 254 253 254 256 256 257 257 257 257 257 256 256 256 255 255 254 254 253 253 254
293 298 302 303 302 301 299 298 297 298 299 300 303 304 305 303 301 298 296 295 293 292 291 291 291 291 291 291 291 292 292 292 292 291 289 288 287 287 287 286 285 283 281 279 278 277 276 275 275 274 273 272 271 270 269 267 265 263 260 258 257 256 255 253 253 253 253 252 250 250 252 254 255 256 257 258 258 258 257 257 256 255 255 254 254 254 255
292 297 302 305 306 305 303 302 302 301 301 301 302 304 305 305 303 300 297 295 293 291 290 289 289 289 290 290 291 292 292 293 293 292 291 290 289 289 288 287 285 284 282 281 279 278 277 277 277 276 275 274 273 272 270 268 266 264 261 259 256 254 252 251 251 250 251 252 250 249 249 251 253 254 256 257 257 257 257 257 257 256 255 254 254 254 254
289 294 299 303 305 305 305 304 304 302 301 301 301 303 304 304 302 299 296 293 291 289 289 288 288 289 290 291 291 292 293 293 293 293 292 291 290 289 288 287 285 284 283 282 281 280 280 279 278 277 276 274 273 271 270 268 266 264 262 260 257 254 252 251 251 251 252 253 252 251 250 250 251 252 253 254 255 255 256 256 256 255 255 255 254 253 253
290 295 299 302 304 305 306 305 303 301 300 299 299 300 301 301 300 297 295 292 290 289 288 288 289 290 291 292 293 293 293 294 294 293 292 291 290 289 288 287 286 285 285 284 283 283 282 281 279 277 275 273 271 269 267 266 264 263 261 260 258 256 254 253 252 251 251 251 252 251 250 250 251 252 252 252 253 255 255 254 254 254 255 255 255 255 255
295 297 299 301 303 304 304 302 301 299 298 297 297 298 299 299 299 298 296 294 292 290 290 290 291 292 293 294 294 294 295 295 294 293 292 291 291 290 289 289 289 288 287 287 286 284 283 282 280 277 275 273 270 268 266 264 262 260 260 259 258 257 256 254 253 252 251 251 251 250 249 248 249 251 252 251 252 254 254 254 254 254 255 255 256 256 257
297 298 299 301 302 302 302 301 300 300 300 299 298 297 298 299 300 300 298 296 295 293 293 293 293 294 295 295 296 296 295 295 294 293 292 292 291 291 290 290 290 289 288 287 285 284 283 281 279 278 276 274 271 268 266 263 261 260 260 260 260 259 257 254 250 249 250 250 249 249 247 245 245 248 251 252 252 253 254 254 254 254 254 254 255 255 256
296 298 299 301 302 302 302 301 301 301 302 300 299 298 298 300 301 301 299 298 296 295 294 295 295 296 297 297 297 296 296 295 294 294 293 293 292 292 292 291 290 289 288 286 285 283 282 281 280 279 277 275 273 270 267 265 263 261 261 261 261 260 257 251 245 243 246 246 247 248 249 245 243 245 249 251 250 249 250 250 251 251 252 253 254 255 255
298 300 302 303 303 302 302 301 302 303 302 300 299 298 299 300 301 300 299 298 297 297 297 297 299 299 299 299 298 297 296 296 295 295 294 294 294 293 292 291 290 288 287 285 284 284 283 283 282 282 280 278 276 273 269 266 264 263 262 262 260 257 253 246 240 239 242 244 247 249 250 247 243 243 246 248 248 247 247 248 248 249 250 251 253 255 257
300 302 303 302 302 301 301 302 303 304 303 301 299 299 299 301 301 301 300 300 299 300 300 301 301 301 300 299 298 298 298 297 297 296 296 296 295 294 293 291 290 288 286 285 284 284 285 286 287 287 287 285 281 276 270 265 260 258 259 260 257 253 250 245 241 239 241 245 248 250 252 252 250 248 248 251 254 256 257 257 257 258 258 258 259 260 261
301 302 301 301 301 301 302 304 305 304 303 301 300 300 301 302 302 302 302 302 302 302 303 303 302 301 300 299 299 299 299 299 299 299 299 298 297 295 293 291 290 287 284 282 282 284 286 289 291 292 292 290 287 281 274 263 250 244 244 247 249 248 247 245 242 241 243 246 250 253 256 257 257 255 254 255 258 261 262 263 263 263 262 262 262 261 261
302 303 303 302 302 302 302 304 305 304 302 301 301 301 302 303 303 303 303 303 303 303 304 303 302 301 301 301 301 301 301 301 301 301 300 299 298 295 293 291 289 284 281 279 280 284 289 291 292 292 293 292 289 284 278 267 252 243 242 243 246 247 248 247 245 245 245 246 249 251 253 254 253 253 253 254 256 258 260 261 262 262 261 261 260 260 260
306 305 304 303 302 301 303 304 304 302 301 302 302 303 303 304 304 304 304 303 304 304 304 303 302 302 302 303 304 304 304 304 304 303 302 301 299 297 295 291 286 279 277 276 277 280 286 290 291 290 290 289 285 280 275 268 257 248 245 244 244 246 248 248 247 248 248 248 248 250 251 252 252 253 253 254 254 256 257 259 260 261 261 261 260 260 260
306 306 305 304 302 301 302 302 302 301 301 302 303 303 304 305 304 304 304 304 304 304 304 303 303 304 305 306 307 307 307 307 306 305 304 303 302 301 299 294 285 278 275 274 273 275 282 288 291 290 287 285 280 275 270 265 259 255 252 250 250 251 252 252 251 251 251 252 252 253 254 256 257 257 257 258 259 259 260 261 263 263 263 263 263 263 262
305 306 306 304 301 300 300 301 301 301 302 302 303 303 304 304 304 303 304 304 304 304 304 305 306 308 309 310 310 309 309 310 310 309 308 308 308 307 304 298 289 282 278 277 276 278 282 287 290 290 287 282 276 270 264 259 256 254 253 254 255 256 256 257 256 256 256 256 257 257 257 258 259 260 260 260 261 261 262 263 263 264 264 264 264 264 264
Height
5821 5821 5822 5823 5823 5824 5823 5822 5825 5828 5831 5835 5838 5838 5840 5842 5845 5847 5848 5850 5852 5853 5854 5856 5856 5856 5857 5859 5862 5863 5864 5864 5865 5866 5868 5869 5870 5871 5873 5875 5877 5878 5878 5878 5879 5880 5882 5884 5886 5887 5888 5888 5890 5891 5893 5895 5897 5899 5900 5902 5903 5905 5907 5909 5911 5911 5911 5912 5914 5916 5917 5918 5919 5921 5923 5925 5925 5926 5928 5929 5930 5931 5933 5934 5935 5935 5936
5819 5820 5820 5821 5820 5820 5820 5821 5824 5827 5830 5833 5835 5836 5837 5839 5841 5844 5845 5847 5848 5850 5852 5852 5852 5853 5855 5858 5860 5861 5862 5862 5861 5863 5867 5869 5869 5868 5868 5869 5872 5875 5876 5876 5876 5877 5878 5879 5882 5884 5885 5887 5890 5892 5893 5893 5894 5896 5898 5900 5901 5904 5906 5907 5908 5908 5909 5910 5911 5912 5913 5914 5916 5918 5920 5921 5922 5923 5924 5925 5926 5928 5929 5930 5931 5932 5933
5817 5817 5818 5818 5816 5816 5817 5819 5822 5824 5827 5830 5833 5833 5834 5835 5838 5841 5843 5844 5846 5848 5849 5850 5849 5851 5853 5855 5857 5858 5859 5859 5860 5862 5865 5866 5867 5867 5866 5866 5868 5870 5872 5873 5874 5874 5875 5876 5878 5879 5881 5884 5886 5888 5890 5891 5892 5894 5896 5897 5899 5901 5902 5904 5905 5905 5906 5907 5909 5910 5910 5911 5913 5914 5916 5918 5919 5920 5921 5922 5923 5924 5926 5927 5928 5929 5930
5814 5814 5815 5815 5814 5814 5816 5817 5819 5822 5824 5827 5829 5830 5831 5832 5835 5838 5840 5841 5843 5845 5847 5848 5848 5849 5851 5853 5854 5855 5856 5857 5858 5860 5862 5863 5864 5865 5865 5864 5865 5866 5868 5869 5870 5871 5872 5873 5874 5876 5878 5880 5881 5884 5886 5888 5889 5891 5892 5893 5894 5896 5898 5899 5900 5901 5902 5904 5905 5907 5908 5908 5909 5911 5913 5914 5915 5917 5918 5918 5919 5921 5922 5924 5925 5926 5927
5811 5811 5813 5813 5813 5813 5815 5815 5818 5820 5822 5824 5826 5828 5829 5831 5833 5835 5837 5839 5841 5843 5845 5846 5847 5848 5849 5851 5853 5854 5854 5855 5856 5858 5859 5860 5861 5862 5862 5862 5862 5864 5866 5867 5867 5868 5870 5872 5872 5873 5874 5875 5877 5880 5882 5884 5885 5886 5887 5888 5890 5892 5894 5894 5895 5897 5898 5899 5901 5902 5904 5906 5907 5908 5910 5911 5912 5914 5915 5915 5916 5917 5919 5920 5922 5923 5924
5808 5809 5811 5812 5812 5812 5813 5816 5819 5820 5821 5823 5825 5826 5828 5829 5831 5832 5833 5835 5837 5840 5842 5844 5845 5846 5847 5848 5850 5851 5852 5853 5854 5856 5857 5858 5858 5859 5860 5860 5860 5862 5864 5865 5866 5867 5869 5871 5871 5870 5871 5872 5874 5876 5878 5879 5881 5883 5884 5886 5888 5890 5890 5890 5892 5893 5894 5894 5896 5898 5900 5903 5904 5905 5906 5908 5910 5911 5912 5912 5913 5914 5915 5917 5919 5920 5921
5807 5808 5809 5810 5810 5811 5812 5815 5818 5818 5819 5821 5823 5825 5826 5827 5828 5829 5830 5831 5833 5836 5839 5841 5842 5844 5845 5846 5847 5848 5849 5850 5852 5854 5856 5856 5857 5857 5857 5857 5858 5859 5861 5863 5864 5865 5866 5867 5867 5867 5868 5869 5870 5871 5873 5874 5876 5878 5881 5883 5885 5886 5887 5887 5889 5890 5890 5891 5892 5893 5896 5898 5899 5901 5903 5906 5907 5908 5908 5910 5910 5911 5912 5914 5915 5917 5918
5805 5806 5806 5807 5808 5809 5811 5814 5815 5815 5816 5819 5821 5823 5823 5824 5825 5826 5827 5828 5830 5832 5835 5837 5839 5841 5843 5844 5844 5844 5845 5847 5849 5852 5853 5854 5854 5854 5855 5855 5855 5856 5858 5859 5861 5863 5863 5864 5865 5866 5867 5867 5867 5868 5869 5871 5872 5874 5877 5879 5880 5881 5883 5884 5885 5886 5887 5888 5889 5891 5893 5895 5897 5899 5901 5903 5904 5904 5905 5907 5907 5907 5909 5911 5912 5914 5915
5804 5804 5805 5806 5806 5807 5809 5811 5812 5813 5814 5815 5818 5819 5820 5821 5823 5824 5825 5826 5827 5830 5832 5833 5835 5838 5839 5841 5841 5840 5842 5843 5846 5848 5850 5851 5852 5852 5853 5853 5853 5854 5855 5857 5858 5860 5861 5861 5863 5866 5867 5866 5866 5866 5867 5868 5869 5870 5872 5875 5877 5879 5880 5881 5882 5883 5884 5885 5887 5889 5891 5893 5895 5897 5898 5899 5899 5899 5902 5904 5904 5903 5905 5907 5909 5910 5911
5803 5804 5804 5805 5805 5805 5807 5808 5809 5810 5811 5812 5814 5816 5817 5819 5820 5821 5822 5824 5825 5827 5829 5829 5831 5834 5836 5837 5837 5837 5838 5840 5842 5844 5847 5848 5849 5850 5850 5851 5851 5852 5853 5855 5856 5858 5859 5859 5861 5863 5864 5864 5864 5865 5866 5867 5868 5868 5870 5872 5874 5876 5878 5879 5880 5881 5882 5883 5884 5886 5888 5890 5891 5893 5894 5894 5894 5895 5897 5899 5900 5900 5901 5903 5904 5905 5907
5802 5802 5803 5803 5804 5804 5805 5807 5807 5807 5808 5809 5811 5813 5814 5815 5817 5818 5820 5821 5822 5824 5825 5826 5827 5829 5832 5834 5834 5835 5835 5836 5838 5840 5843 5845 5847 5847 5847 5848 5849 5850 5850 5852 5854 5856 5857 5858 5859 5860 5860 5860 5860 5862 5864 5865 5866 5867 5868 5869 5871 5872 5874 5876 5878 5879 5880 5881 5882 5883 5885 5886 5887 5888 5890 5890 5891 5891 5892 5894 5896 5897 5897 5899 5899 5900 5901
5801 5801 5801 5802 5803 5803 5804 5805 5805 5806 5807 5808 5809 5810 5811 5812 5814 5815 5816 5817 5818 5820 5821 5822 5823 5825 5828 5830 5832 5833 5833 5834 5835 5836 5838 5840 5842 5844 5844 5845 5846 5847 5848 5849 5851 5853 5854 5855 5857 5857 5857 5857 5858 5859 5861 5862 5863 5864 5865 5865 5867 5869 5871 5873 5875 5877 5878 5879 5880 5881 5882 5883 5884 5885 5886 5887 5887 5888 5889 5891 5892 5893 5894 5895 5896 5896 5897
5799 5800 5801 5801 5802 5803 5803 5804 5804 5805 5807 5807 5807 5807 5808 5810 5811 5813 5813 5814 5815 5817 5818 5819 5820 5822 5824 5826 5828 5830 5831 5832 5833 5833 5835 5836 5838 5839 5840 5841 5842 5843 5844 5845 5847 5849 5850 5851 5853 5853 5854 5855 5856 5857 5859 5860 5861 5861 5862 5863 5864 5866 5868 5870 5871 5874 5876 5876 5877 5877 5879 5880 5881 5882 5883 5883 5884 5884 5886 5887 5889 5890 5890 5892 5893 5893 5893
5798 5799 5800 5800 5801 5802 5802 5802 5803 5804 5805 5805 5805 5805 5806 5807 5809 5810 5811 5812 5813 5814 5815 5817 5818 5820 5821 5823 5824 5826 5829 5830 5831 5831 5832 5833 5835 5836 5836 5838 5838 5839 5840 5841 5843 5844 5845 5847 5849 5850 5850 5851 5852 5854 5855 5857 5858 5859 5859 5860 5861 5863 5865 5866 5868 5870 5872 5873 5873 5874 5875 5877 5879 5879 5880 5880 5880 5881 5882 5884 5885 5886 5887 5887 5888 5889 5890
5797 5797 5798 5798 5799 5800 5800 5801 5801 5802 5802 5803 5803 5803 5804 5805 5806 5807 5808 5810 5811 5812 5813 5814 5816 5817 5818 5820 5821 5823 5825 5826 5827 5828 5828 5830 5831 5832 5833 5834 5835 5836 5837 5837 5838 5840 5841 5843 5845 5846 5847 5847 5848 5849 5851 5853 5854 5855 5855 5856 5857 5858 5860 5862 5864 5867 5869 5870 5870 5871 5871 5873 5875 5876 5876 5877 5877 5878 5879 5880 5881 5882 5883 5883 5883 5884 5886
5795 5795 5796 5797 5798 5798 5799 5799 5800 5800 5801 5801 5801 5802 5802 5803 5804 5805 5806 5806 5808 5809 5810 5811 5812 5814 5815 5816 5817 5819 5820 5822 5823 5824 5825 5826 5827 5829 5830 5831 5832 5833 5834 5834 5835 5835 5836 5838 5840 5842 5843 5843 5843 5845 5847 5849 5850 5851 5851 5852 5853 5854 5855 5857 5859 5862 5864 5865 5866 5867 5868 5869 5870 5872 5873 5873 5874 5875 5876 5877 5877 5877 5878 5878 5878 5879 5881
5793 5793 5794 5795 5796 5796 5797 5797 5798 5798 5799 5799 5799 5800 5801 5801 5802 5802 5803 5804 5805 5806 5807 5808 5809 5810 5811 5812 5813 5814 5816 5817 5818 5819 5820 5821 5823 5824 5826 5828 5829 5830 5831 5832 5832 5832 5832 5833 5835 5836 5838 5839 5840 5841 5842 5844 5845 5846 5847 5848 5849 5850 5852 5853 5855 5857 5859 5860 5861 5862 5864 5865 5866 5867 5868 5869 5870 5870 5872 5873 5874 5873 5874 5874 5874 5875 5876
5792 5792 5792 5792 5793 5794 5794 5795 5796 5796 5796 5797 5797 5797 5798 5798 5799 5800 5801 5801 5802 5803 5804 5805 5805 5806 5807 5808 5809 5810 5811 5812 5813 5814 5815 5816 5817 5819 5820 5822 5824 5825 5827 5827 5828 5828 5828 5829 5830 5831 5832 5834 5835 5836 5838 5839 5841 5842 5843 5844 5845 5846 5848 5850 5851 5853 5854 5856 5857 5857 5858 5860 5861 5862 5863 5864 5866 5867 5867 5868 5869 5870 5870 5870 5870 5870 5871
5790 5790 5791 5791 5790 5791 5792 5792 5793 5794 5794 5794 5794 5795 5796 5796 5797 5798 5798 5799 5800 5800 5801 5802 5803 5803 5804 5805 5805 5806 5807 5808 5808 5809 5810 5811 5812 5813 5814 5815 5817 5819 5821 5822 5823 5823 5824 5824 5825 5826 5827 5828 5829 5831 5833 5834 5836 5837 5838 5838 5840 5841 5843 5844 5846 5847 5849 5851 5852 5853 5854 5855 5856 5858 5859 5861 5862 5862 5862 5863 5864 5864 5865 5865 5865 5865 5865
5788 5789 5789 5789 5789 5789 5790 5790 5790 5791 5792 5792 5792 5792 5793 5794 5794 5795 5796 5796 5797 5798 5799 5800 5801 5801 5801 5802 5802 5803 5803 5803 5804 5804 5805 5806 5808 5809 5809 5810 5811 5812 5814 5816 5817 5818 5819 5820 5821 5821 5822 5823 5824 5825 5826 5828 5830 5831 5832 5833 5835 5836 5837 5838 5839 5841 5843 5845 5846 5847 5848 5849 5850 5852 5854 5856 5857 5856 5857 5858 5858 5858 5859 5859 5859 5860 5861
5786 5787 5787 5788 5788 5788 5788 5788 5789 5789 5790 5790 5790 5790 5791 5792 5792 5792 5793 5793 5794 5795 5796 5797 5798 5798 5799 5799 5799 5800 5800 5800 5800 5800 5800 5801 5802 5804 5804 5805 5806 5806 5808 5809 5811 5813 5814 5815 5816 5817 5817 5818 5819 5820 5820 5821 5823 5824 5826 5827 5829 5830 5831 5832 5833 5834 5836 5838 5840 5841 5842 5843 5844 5846 5848 5850 5850 5850 5851 5852 5852 5852 5853 5853 5853 5855 5856
5785 5785 5786 5786 5786 5786 5787 5787 5787 5787 5787 5788 5788 5788 5788 5789 5790 5790 5791 5791 5791 5792 5792 5793 5794 5795 5796 5796 5796 5796 5797 5797 5796 5796 5796 5797 5798 5799 5799 5800 5801 5801 5802 5803 5805 5807 5808 5809 5811 5812 5812 5813 5814 5814 5815 5815 5816 5818 5819 5821 5822 5823 5825 5826 5827 5828 5829 5830 5832 5834 5835 5836 5838 5839 5841 5843 5844 5844 5845 5845 5845 5846 5847 5848 5848 5850 5851
5783 5783 5784 5785 5785 5785 5785 5786 5786 5786 5786 5786 5786 5787 5786 5786 5787 5788 5788 5788 5789 5789 5789 5790 5791 5791 5792 5792 5793 5793 5793 5793 5794 5793 5793 5793 5794 5794 5794 5795 5796 5796 5797 5798 5799 5801 5802 5803 5804 5805 5806 5807 5808 5809 5809 5809 5810 5811 5812 5814 5815 5816 5818 5820 5821 5822 5823 5823 5824 5826 5828 5830 5831 5832 5834 5836 5837 5838 5839 5840 5840 5841 5842 5842 5843 5845 5846
5781 5781 5782 5783 5783 5783 5784 5784 5783 5783 5783 5783 5784 5784 5785 5784 5784 5785 5785 5786 5786 5787 5787 5787 5787 5788 5788 5788 5789 5789 5790 5790 5790 5790 5790 5790 5791 5791 5791 5791 5791 5791 5792 5793 5793 5794 5795 5796 5798 5799 5800 5801 5801 5802 5803 5803 5804 5804 5805 5807 5808 5809 5811 5812 5814 5815 5816 5817 5817 5819 5821 5822 5823 5825 5827 5828 5830 5831 5832 5833 5834 5835 5836 5836 5837 5838 5839
5780 5780 5780 5781 5781 5782 5782 5781 5781 5781 5781 5781 5781 5781 5782 5782 5782 5782 5783 5783 5783 5783 5784 5784 5784 5784 5784 5784 5784 5785 5786 5786 5786 5787 5787 5787 5788 5788 5788 5788 5788 5787 5787 5788 5788 5788 5788 5789 5790 5792 5793 5794 5795 5796 5796 5797 5798 5798 5799 5800 5801 5802 5804 5805 5807 5808 5809 5810 5811 5812 5813 5814 5816 5818 5820 5821 5822 5823 5824 5826 5827 5828 5829 5830 5830 5831 5831
5778 5778 5778 5779 5780 5780 5779 5779 5779 5779 5779 5779 5779 5779 5779 5779 5779 5780 5780 5780 5780 5780 5780 5780 5780 5780 5780 5780 5780 5780 5781 5782 5782 5782 5783 5784 5784 5784 5784 5784 5784 5784 5784 5784 5784 5783 5783 5783 5784 5784 5785 5787 5788 5789 5790 5791 5792 5792 5793 5793 5794 5795 5797 5798 5799 5800 5802 5803 5804 5806 5806 5807 5808 5811 5812 5813 5814 5816 5817 5818 5820 5821 5822 5822 5823 5824 5825
5776 5776 5776 5777 5777 5777 5777 5777 5777 5777 5777 5776 5776 5776 5776 5777 5777 5777 5777 5777 5777 5777 5777 5776 5776 5776 5776 5776 5776 5776 5776 5777 5777 5778 5779 5779 5780 5780 5780 5781 5780 5780 5780 5780 5780 5780 5779 5779 5779 5779 5779 5779 5781 5782 5783 5784 5785 5786 5787 5787 5788 5789 5790 5791 5792 5793 5794 5795 5796 5798 5799 5800 5801 5803 5805 5806 5807 5808 5810 5811 5812 5813 5814 5815 5815 5816 5818
5775 5775 5775 5775 5775 5775 5775 5775 5775 5774 5774 5773 5773 5773 5774 5774 5774 5774 5774 5774 5774 5774 5773 5773 5773 5773 5773 5772 5772 5772 5772 5772 5772 5773 5774 5774 5775 5775 5776 5776 5776 5776 5776 5776 5776 5776 5776 5775 5775 5774 5774 5774 5775 5776 5776 5778 5779 5779 5780 5781 5782 5783 5783 5784 5785 5786 5786 5787 5788 5789 5791 5793 5794 5796 5797 5799 5800 5801 5803 5804 5805 5805 5805 5806 5807 5809 5810
5773 5773 5773 5774 5774 5773 5773 5773 5772 5772 5771 5771 5770 5770 5770 5770 5770 5770 5770 5770 5770 5770 5769 5769 5769 5769 5769 5768 5768 5768 5768 5768 5768 5768 5768 5769 5769 5770 5770 5771 5771 5771 5771 5771 5771 5771 5771 5771 5770 5770 5769 5769 5769 5770 5770 5771 5772 5773 5773 5774 5775 5776 5777 5777 5778 5779 5779 5780 5781 5781 5783 5784 5786 5788 5789 5791 5792 5794 5795 5797 5797 5797 5797 5798 5800 5802 5803
5771 5772 5772 5772 5772 5771 5771 5770 5770 5769 5769 5768 5768 5767 5767 5767 5766 5766 5766 5767 5767 5766 5766 5765 5764 5764 5764 5764 5764 5763 5763 5763 5763 5763 5763 5763 5764 5764 5764 5765 5765 5765 5765 5765 5765 5765 5765 5765 5765 5765 5764 5764 5764 5764 5765 5765 5766 5766 5766 5767 5768 5769 5769 5770 5771 5771 5772 5773 5774 5775 5776 5777 5778 5779 5781 5783 5785 5787 5788 5788 5789 5790 5790 5791 5792 5794 5795
5769 5770 5770 5770 5769 5769 5768 5768 5767 5767 5766 5766 5765 5764 5764 5764 5763 5763 5763 5763 5763 5763 5763 5762 5761 5760 5759 5759 5758 5758 5758 5758 5758 5758 5758 5758 5758 5758 5758 5758 5758 5758 5759 5759 5759 5759 5759 5759 5759 5758 5758 5758 5759 5759 5759 5760 5760 5760 5760 5761 5761 5762 5762 5762 5763 5764 5764 5765 5767 5768 5769 5770 5770 5772 5774 5776 5778 5779 5780 5781 5782 5782 5783 5783 5785 5786 5788
5768 5768 5767 5767 5766 5766 5765 5765 5764 5764 5763 5762 5762 5761 5761 5761 5760 5759 5759 5759 5758 5759 5759 5758 5758 5757 5755 5754 5753 5752 5752 5752 5752 5752 5752 5752 5752 5752 5752 5752 5752 5751 5752 5752 5752 5752 5752 5752 5752 5751 5752 5752 5752 5752 5753 5753 5754 5754 5753 5754 5754 5755 5755 5755 5756 5756 5757 5757 5758 5760 5761 5762 5763 5765 5767 5769 5771 5772 5773 5774 5775 5775 5775 5776 5776 5777 5779
5766 5766 5765 5764 5764 5763 5763 5762 5761 5760 5760 5759 5758 5757 5757 5757 5757 5756 5756 5755 5754 5754 5754 5753 5753 5752 5751 5750 5749 5748 5747 5747 5746 5746 5746 5746 5745 5745 5745 5745 5745 5745 5744 5744 5744 5744 5744 5744 5744 5744 5745 5745 5745 5745 5745 5745 5745 5746 5746 5747 5747 5747 5748 5748 5749 5749 5749 5749 5751 5752 5753 5753 5754 5756 5758 5760 5762 5764 5765 5766 5767 5767 5768 5768 5769 5769 5770
5764 5763 5763 5762 5761 5761 5760 5759 5758 5758 5757 5756 5755 5754 5753 5753 5753 5752 5752 5751 5750 5750 5749 5749 5748 5748 5747 5746 5745 5744 5743 5742 5741 5741 5741 5740 5740 5739 5738 5738 5737 5737 5737 5736 5736 5736 5736 5736 5736 5736 5737 5737 5737 5737 5736 5736 5737 5737 5738 5739 5739 5739 5740 5740 5741 5743 5743 5742 5744 5745 5745 5745 5746 5748 5749 5750 5753 5755 5756 5757 5758 5759 5760 5761 5761 5762 5763
5761 5761 5760 5759 5758 5758 5757 5756 5756 5755 5754 5753 5752 5751 5751 5750 5749 5749 5748 5747 5746 5745 5745 5744 5743 5743 5742 5741 5740 5739 5738 5737 5737 5736 5735 5734 5733 5732 5732 5731 5730 5729 5729 5728 5728 5727 5727 5728 5728 5729 5728 5728 5728 5728 5727 5727 5728 5729 5730 5730 5730 5730 5731 5732 5733 5735 5735 5735 5736 5737 5737 5738 5739 5741 5741 5742 5744 5746 5746 5747 5748 5750 5752 5754 5754 5755 5756
5758 5757 5757 5756 5756 5755 5754 5754 5753 5752 5751 5750 5749 5748 5748 5747 5746 5745 5744 5743 5742 5741 5740 5740 5738 5737 5736 5735 5734 5733 5732 5732 5731 5730 5729 5728 5726 5725 5725 5724 5723 5723 5722 5721 5720 5719 5719 5719 5720 5721 5720 5719 5719 5719 5718 5719 5720 5721 5721 5721 5721 5721 5722 5723 5724 5726 5727 5727 5728 5729 5729 5730 5732 5733 5733 5735 5737 5737 5737 5737 5739 5741 5744 5746 5747 5747 5748
5754 5753 5753 5752 5752 5752 5751 5751 5750 5749 5748 5747 5746 5745 5744 5743 5742 5741 5740 5739 5738 5737 5736 5735 5734 5733 5731 5730 5729 5728 5727 5725 5725 5724 5722 5721 5720 5718 5717 5717 5716 5715 5715 5713 5712 5711 5711 5711 5711 5712 5711 5710 5710 5710 5709 5710 5711 5712 5713 5713 5713 5713 5714 5715 5716 5717 5718 5719 5720 5720 5721 5723 5724 5724 5725 5727 5728 5728 5728 5729 5731 5733 5736 5737 5738 5739 5739
5750 5749 5749 5749 5748 5748 5748 5747 5746 5745 5744 5743 5742 5741 5740 5739 5738 5737 5736 5735 5734 5732 5731 5730 5729 5727 5726 5725 5723 5722 5721 5720 5719 5717 5716 5714 5713 5712 5711 5710 5708 5707 5707 5706 5705 5704 5703 5702 5703 5703 5702 5701 5701 5701 5700 5701 5702 5703 5704 5705 5705 5706 5707 5707 5707 5708 5710 5711 5711 5713 5714 5715 5715 5716 5717 5719 5719 5719 5720 5721 5723 5726 5728 5729 5729 5730 5730
5747 5746 5746 5745 5744 5744 5743 5743 5742 5741 5740 5739 5738 5737 5736 5735 5733 5732 5731 5729 5728 5727 5726 5725 5723 5722 5721 5719 5718 5716 5715 5714 5712 5711 5709 5708 5706 5705 5704 5702 5701 5700 5699 5698 5697 5696 5695 5694 5694 5694 5693 5692 5692 5691 5692 5693 5693 5694 5695 5696 5697 5698 5699 5699 5699 5700 5701 5702 5703 5705 5706 5707 5708 5709 5710 5711 5711 5711 5712 5714 5716 5719 5720 5720 5721 5722 5723
5744 5743 5742 5742 5741 5741 5740 5739 5738 5737 5736 5734 5733 5732 5731 5730 5729 5727 5726 5724 5723 5722 5721 5719 5718 5716 5715 5713 5712 5710 5709 5708 5706 5704 5702 5701 5699 5698 5696 5695 5693 5692 5691 5690 5689 5688 5687 5686 5686 5685 5684 5683 5683 5682 5683 5683 5684 5684 5686 5687 5688 5689 5689 5690 5691 5693 5694 5694 5696 5697 5698 5699 5700 5701 5702 5703 5704 5704 5705 5707 5709 5711 5711 5712 5713 5714 5715
5741 5740 5740 5739 5738 5737 5736 5735 5734 5733 5732 5730 5729 5728 5727 5725 5724 5722 5721 5719 5718 5716 5715 5714 5712 5710 5709 5707 5705 5704 5702 5701 5699 5697 5696 5694 5692 5691 5689 5687 5685 5684 5683 5682 5680 5679 5678 5678 5677 5676 5675 5674 5674 5674 5674 5674 5674 5675 5677 5678 5679 5679 5680 5681 5683 5685 5686 5687 5688 5689 5690 5691 5692 5693 5694 5695 5696 5697 5699 5700 5702 5702 5703 5703 5704 5706 5707
5737 5737 5736 5735 5734 5733 5732 5731 5730 5729 5728 5727 5725 5724 5723 5721 5719 5718 5716 5714 5713 5711 5709 5708 5706 5704 5702 5701 5699 5697 5695 5694 5692 5690 5688 5686 5685 5683 5681 5680 5678 5676 5675 5673 5672 5671 5670 5669 5668 5667 5667 5666 5666 5665 5665 5666 5666 5666 5668 5669 5670 5671 5672 5673 5676 5678 5679 5679 5679 5681 5682 5683 5684 5684 5685 5687 5689 5690 5691 5693 5694 5695 5695 5696 5696 5698 5700
5734 5733 5732 5731 5730 5729 5728 5727 5726 5725 5723 5722 5721 5719 5718 5716 5714 5712 5711 5709 5707 5706 5704 5702 5700 5698 5696 5694 5692 5690 5689 5687 5685 5683 5681 5679 5677 5675 5674 5672 5670 5668 5666 5665 5663 5662 5661 5660 5659 5658 5658 5658 5657 5657 5657 5658 5658 5659 5659 5660 5662 5663 5665 5666 5669 5671 5671 5670 5670 5672 5675 5676 5677 5677 5678 5679 5681 5682 5684 5685 5686 5687 5688 5689 5690 5691 5693
5730 5729 5728 5727 5726 5725 5723 5722 5721 5720 5718 5717 5716 5714 5712 5710 5709 5707 5705 5703 5701 5700 5698 5696 5694 5692 5690 5688 5686 5684 5682 5680 5678 5676 5674 5672 5670 5668 5666 5664 5662 5660 5659 5657 5656 5654 5653 5652 5651 5650 5649 5649 5649 5649 5649 5650 5651 5652 5652 5653 5654 5656 5657 5659 5662 5663 5662 5661 5662 5664 5667 5668 5670 5671 5671 5672 5673 5674 5675 5676 5677 5679 5680 5681 5683 5684 5686
5725 5724 5723 5722 5721 5720 5718 5717 5716 5714 5713 5711 5710 5708 5707 5705 5703 5701 5699 5697 5696 5694 5692 5690 5688 5686 5684 5682 5680 5678 5676 5673 5671 5670 5667 5665 5663 5661 5659 5657 5656 5654 5652 5650 5649 5648 5647 5646 5644 5643 5642 5641 5640 5640 5641 5642 5642 5644 5645 5646 5647 5648 5649 5651 5653 5654 5653 5653 5655 5657 5658 5660 5662 5663 5664 5665 5665 5666 5667 5668 5669 5671 5673 5674 5676 5677 5678
5721 5720 5719 5717 5716 5715 5713 5712 5710 5709 5708 5706 5704 5703 5701 5699 5698 5696 5694 5692 5690 5688 5686 5684 5683 5681 5679 5676 5674 5672 5669 5667 5665 5663 5661 5659 5657 5655 5653 5651 5649 5647 5646 5644 5642 5641 5640 5639 5638 5636 5635 5634 5633 5632 5633 5633 5634 5635 5637 5638 5638 5639 5640 5642 5644 5645 5646 5647 5648 5649 5650 5652 5654 5655 5656 5657 5657 5658 5660 5662 5663 5665 5666 5668 5669 5670 5671
5716 5715 5714 5713 5711 5710 5708 5707 5706 5704 5703 5701 5699 5698 5696 5694 5693 5691 5689 5687 5685 5683 5681 5679 5677 5675 5673 5671 5668 5666 5663 5661 5658 5657 5655 5653 5651 5648 5646 5644 5642 5641 5640 5638 5637 5636 5635 5634 5633 5631 5629 5628 5626 5625 5626 5626 5627 5628 5629 5631 5632 5632 5633 5634 5636 5638 5639 5640 5641 5642 5643 5645 5647 5648 5649 5650 5651 5652 5654 5655 5657 5659 5660 5661 5663 5663 5664
5713 5711 5710 5708 5707 5705 5704 5702 5701 5699 5698 5696 5694 5693 5691 5689 5687 5685 5683 5681 5680 5678 5676 5674 5672 5670 5668 5666 5663 5661 5658 5655 5653 5651 5649 5647 5645 5643 5641 5639 5637 5635 5634 5633 5632 5631 5630 5629 5628 5627 5625 5623 5621 5620 5620 5621 5621 5622 5623 5625 5626 5626 5627 5628 5630 5631 5632 5633 5634 5636 5638 5639 5641 5642 5643 5643 5644 5645 5646 5648 5649 5651 5653 5654 5655 5655 5656
5709 5707 5706 5704 5702 5701 5699 5698 5696 5694 5693 5691 5690 5688 5686 5684 5682 5680 5679 5677 5675 5673 5671 5669 5667 5665 5663 5660 5658 5656 5653 5650 5648 5645 5643 5641 5639 5637 5635 5633 5632 5630 5629 5628 5628 5627 5626 5625 5624 5622 5621 5619 5617 5616 5616 5616 5617 5618 5618 5619 5620 5621 5622 5623 5624 5625 5626 5628 5629 5631 5632 5633 5635 5636 5637 5637 5638 5639 5640 5640 5641 5643 5645 5646 5647 5647 5648
5704 5702 5701 5699 5697 5696 5695 5693 5691 5690 5688 5687 5685 5683 5681 5679 5677 5676 5674 5672 5670 5668 5667 5664 5662 5660 5658 5655 5653 5650 5648 5645 5643 5640 5638 5635 5633 5631 5630 5628 5627 5626 5625 5624 5623 5623 5622 5621 5620 5618 5617 5616 5615 5614 5613 5613 5613 5614 5614 5615 5617 5618 5619 5619 5620 5621 5622 5624 5625 5626 5627 5628 5629 5630 5631 5631 5632 5633 5634 5634 5635 5636 5637 5638 5639 5640 5641
5699 5697 5696 5694 5692 5691 5690 5689 5687 5685 5684 5682 5681 5679 5677 5675 5673 5671 5670 5668 5666 5664 5662 5659 5657 5655 5653 5650 5648 5645 5643 5641 5638 5635 5633 5630 5628 5627 5625 5624 5623 5622 5621 5620 5620 5619 5619 5618 5617 5615 5614 5613 5612 5611 5611 5610 5611 5611 5612 5613 5614 5614 5615 5616 5617 5617 5618 5619 5620 5621 5622 5623 5624 5625 5626 5626 5627 5628 5628 5629 5629 5630 5631 5632 5633 5633 5634
5694 5693 5691 5689 5688 5687 5686 5685 5683 5681 5680 5678 5676 5674 5672 5671 5669 5667 5665 5663 5662 5660 5658 5655 5652 5650 5648 5645 5643 5641 5638 5636 5633 5631 5628 5626 5624 5623 5621 5620 5619 5618 5617 5617 5616 5616 5615 5614 5613 5612 5610 5609 5609 5608 5608 5608 5608 5609 5609 5610 5610 5611 5612 5612 5613 5613 5614 5615 5616 5616 5617 5618 5619 5619 5620 5621 5622 5622 5623 5623 5624 5625 5625 5626 5627 5627 5628